Bay City, TX

2:12 AM CDT on April 30, 2017 (GMT -0500)
Bay City

Weather History for KBYY - May, 2014

Change the Weather History Date:

Thursday, May 1, 2014

  Actual Average (KLBX) Record (KLBX)
Temperature  
Mean Temperature 61 °F -  
Max Temperature 71 °F 80 °F 87 °F (2011)
Min Temperature 51 °F 64 °F 48 °F (2005)
Degree Days  
Heating Degree Days 4    
Growing Degree Days 11 (Base 50)    
Moisture  
Dew Point 45 °F    
Average Humidity 56    
Maximum Humidity 85    
Minimum Humidity 28    
Precipitation  
Precipitation 0.00 in - - ()
Sea Level Pressure  
Sea Level Pressure 30.11 in    
Wind  
Wind Speed 4 mph (NE)    
Max Wind Speed 15 mph    
Max Gust Speed 21 mph    
Visibility 10 miles    
Events Rain    
Averages and records for this station are not official NWS values.
T = Trace of Precipitation, MM = Missing Value Source: NWS Daily Summary

Daily Weather History Graph

Daily Weather History Graph

Search for Another Location

Airport or City:

Trip Planner

Search our weather history database for the weather conditions in past years. The results will help you decide how hot, cold, wet, or windy it might be!

Date:

Astronomy

May. 01, 2014 Rise Set
Actual Time 6:42 AM CDT 7:59 PM CDT
Civil Twilight 6:17 AM CDT 8:24 PM CDT
Nautical Twilight 5:47 AM CDT 8:54 PM CDT
Astronomical Twilight 5:16 AM CDT 9:25 PM CDT
Moon 8:35 AM CDT (5/1) 10:28 PM CDT (5/1)
Length of Visible Light 14h 07m
Length of Day
13h 17m
Waxing Crescent, 7% of the Moon is Illuminated
May 1
Waxing Crescent
May 6
First Quarter
May 14
Full
May 21
Last Quarter
May 28
New

Hourly Weather History & Observations

Time (CDT) Temp. Dew Point Humidity Pressure Visibility Wind Dir Wind Speed Gust Speed Precip Events Conditions
12:15 AM 58.3 °F 45.1 °F 62% 30.13 in 10.0 mi NNE 5.8 mph - N/A   Clear
12:35 AM 58.6 °F 45.1 °F 61% 30.13 in 10.0 mi NNE 8.1 mph - N/A   Clear
1:15 AM 58.8 °F 45.5 °F 61% 30.12 in 10.0 mi NNE 4.6 mph - N/A   Clear
1:35 AM 58.1 °F 45.3 °F 62% 30.13 in 10.0 mi NE 5.8 mph - N/A   Clear
1:55 AM 56.1 °F 45.7 °F 68% 30.14 in 10.0 mi Calm Calm - N/A   Clear
2:15 AM 54.5 °F 45.9 °F 73% 30.13 in 10.0 mi ENE 3.5 mph - N/A   Clear
2:35 AM 54.5 °F 46.2 °F 74% 30.13 in 10.0 mi NNE 4.6 mph - N/A   Clear
2:55 AM 54.7 °F 46.4 °F 74% 30.13 in 10.0 mi NNE 3.5 mph - N/A   Clear
3:15 AM 55.2 °F 46.0 °F 71% 30.13 in 10.0 mi Calm Calm - N/A   Clear
3:35 AM 55.2 °F 45.7 °F 70% 30.14 in 10.0 mi Calm Calm - N/A   Clear
3:55 AM 51.8 °F 44.6 °F 76% 30.13 in 10.0 mi North 5.8 mph - N/A   Clear
4:15 AM 52.2 °F 45.7 °F 79% 30.13 in 10.0 mi NNE 4.6 mph - N/A   Clear
4:35 AM 53.2 °F 46.2 °F 77% 30.13 in 10.0 mi NNE 3.5 mph - N/A   Clear
4:55 AM 54.9 °F 46.0 °F 72% 30.12 in 10.0 mi NNE 4.6 mph - N/A   Clear
5:15 AM 54.7 °F 45.7 °F 72% 30.13 in 10.0 mi NE 5.8 mph - N/A   Clear
5:35 AM 54.0 °F 45.5 °F 73% 30.12 in 10.0 mi NNE 3.5 mph - N/A   Clear
5:55 AM 53.6 °F 45.5 °F 74% 30.13 in 10.0 mi NNE 4.6 mph - N/A   Clear
6:15 AM 53.2 °F 45.5 °F 75% 30.13 in 10.0 mi NE 3.5 mph - N/A   Clear
6:35 AM 51.8 °F 45.1 °F 78% 30.13 in 10.0 mi NNE 3.5 mph - N/A   Clear
6:55 AM 51.3 °F 45.0 °F 79% 30.14 in 10.0 mi Calm Calm - N/A   Clear
7:15 AM 51.4 °F 45.5 °F 80% 30.14 in 10.0 mi Calm Calm - N/A   Clear
7:35 AM 54.0 °F 47.1 °F 78% 30.14 in 10.0 mi NE 3.5 mph - N/A   Clear
7:55 AM 55.8 °F 47.7 °F 74% 30.14 in 10.0 mi NNE 4.6 mph - N/A   Clear
8:15 AM 57.2 °F 48.0 °F 71% 30.16 in 10.0 mi Calm Calm - N/A   Clear
8:35 AM 59.9 °F 48.9 °F 67% 30.16 in 10.0 mi ENE 5.8 mph - N/A   Clear
8:55 AM 62.1 °F 48.7 °F 62% 30.16 in 10.0 mi ENE 4.6 mph - N/A   Clear
9:15 AM 63.3 °F 49.5 °F 61% 30.16 in 10.0 mi East 4.6 mph - N/A   Clear
9:35 AM 64.4 °F 46.4 °F 52% 30.16 in 10.0 mi ENE 6.9 mph - N/A   Clear
9:55 AM 67.1 °F 47.5 °F 49% 30.15 in 10.0 mi NE 8.1 mph - N/A   Clear
10:15 AM 67.6 °F 46.8 °F 47% 30.15 in 10.0 mi NE 9.2 mph - N/A   Clear
10:35 AM 69.3 °F 42.1 °F 37% 30.16 in 10.0 mi NE 11.5 mph - N/A   Clear
10:55 AM 71.4 °F 39.6 °F 31% 30.15 in 10.0 mi NNE 11.5 mph 17.3 mph N/A   Clear
11:15 AM 71.8 °F 37.9 °F 29% 30.15 in 10.0 mi NNE 15.0 mph 20.7 mph N/A   Clear
11:35 AM 71.8 °F 37.0 °F 28% 30.15 in 10.0 mi NE 13.8 mph 20.7 mph N/A   Clear
11:55 AM 69.8 °F 35.6 °F 28% 30.16 in 10.0 mi NE 11.5 mph - N/A   Clear
12:15 PM 70.7 °F 37.8 °F 30% 30.15 in 10.0 mi ENE 9.2 mph - N/A   Clear
12:35 PM 70.0 °F 38.8 °F 32% 30.14 in 10.0 mi East 5.8 mph - N/A   Scattered Clouds
12:55 PM 70.5 °F 39.6 °F 32% 30.14 in 10.0 mi East 4.6 mph - N/A   Scattered Clouds
1:15 PM 70.0 °F 40.5 °F 34% 30.13 in 10.0 mi East 3.5 mph - N/A   Mostly Cloudy
1:35 PM 69.4 °F 41.5 °F 36% 30.14 in 10.0 mi SSE 4.6 mph - N/A Rain Light Rain
1:55 PM 68.7 °F 43.3 °F 40% 30.13 in 10.0 mi Calm Calm - N/A Rain Light Rain
2:15 PM 68.9 °F 43.2 °F 39% 30.14 in 10.0 mi Calm Calm - N/A Rain Light Rain
2:35 PM 69.3 °F 39.9 °F 34% 30.12 in 10.0 mi Calm Calm - N/A   Scattered Clouds
2:55 PM 68.7 °F 39.0 °F 34% 30.11 in 10.0 mi Calm Calm - N/A Rain Light Rain
3:15 PM 68.9 °F 42.8 °F 39% 30.10 in 10.0 mi Calm Calm - N/A Rain Light Rain
3:35 PM 70.2 °F 39.6 °F 33% 30.09 in 10.0 mi Calm Calm - N/A   Clear
3:55 PM 71.6 °F 37.4 °F 29% 30.09 in 10.0 mi Calm Calm - N/A   Clear
4:15 PM 71.8 °F 38.1 °F 29% 30.08 in 10.0 mi East 3.5 mph - N/A   Clear
4:55 PM 70.7 °F 38.1 °F 30% 30.06 in 10.0 mi Calm Calm - N/A   Scattered Clouds
5:15 PM 70.2 °F 39.2 °F 32% 30.05 in 10.0 mi ENE 3.5 mph - N/A   Scattered Clouds
5:35 PM 70.0 °F 39.6 °F 33% 30.04 in 10.0 mi Calm Calm - N/A   Scattered Clouds
5:55 PM 69.8 °F 42.3 °F 37% 30.04 in 10.0 mi ESE 3.5 mph - N/A   Scattered Clouds
6:15 PM 69.6 °F 44.4 °F 40% 30.04 in 10.0 mi SSE 3.5 mph - N/A   Mostly Cloudy
6:35 PM 69.4 °F 43.3 °F 39% 30.04 in 10.0 mi SE 4.6 mph - N/A   Mostly Cloudy
6:55 PM 68.7 °F 43.7 °F 40% 30.04 in 10.0 mi SE 4.6 mph - N/A   Overcast
7:15 PM 67.8 °F 46.6 °F 46% 30.04 in 10.0 mi SSE 3.5 mph - N/A   Overcast
7:35 PM 66.9 °F 48.0 °F 51% 30.04 in 10.0 mi Calm Calm - N/A   Overcast
7:55 PM 66.4 °F 48.7 °F 53% 30.05 in 10.0 mi Calm Calm - N/A   Scattered Clouds
8:15 PM 66.2 °F 48.2 °F 52% 30.06 in 10.0 mi Calm Calm - N/A   Scattered Clouds
8:35 PM 64.8 °F 49.5 °F 58% 30.06 in 10.0 mi Calm Calm - N/A   Scattered Clouds
8:55 PM 62.2 °F 50.5 °F 65% 30.06 in 10.0 mi Calm Calm - N/A   Scattered Clouds
9:15 PM 60.8 °F 50.5 °F 69% 30.07 in 10.0 mi Calm Calm - N/A   Mostly Cloudy
9:35 PM 60.1 °F 50.7 °F 71% 30.07 in 10.0 mi Calm Calm - N/A   Overcast
9:55 PM 61.2 °F 50.0 °F 67% 30.07 in 10.0 mi Calm Calm - N/A   Overcast
10:15 PM 60.1 °F 50.9 °F 72% 30.07 in 10.0 mi Calm Calm - N/A   Overcast
10:35 PM 58.8 °F 51.6 °F 77% 30.07 in 10.0 mi Calm Calm - N/A   Mostly Cloudy
10:55 PM 58.3 °F 51.3 °F 77% 30.07 in 10.0 mi Calm Calm - N/A   Clear
11:15 PM 57.0 °F 51.1 °F 81% 30.08 in 10.0 mi Calm Calm - N/A   Clear
11:35 PM 55.6 °F 49.8 °F 81% 30.08 in 10.0 mi Calm Calm - N/A   Clear
11:55 PM 54.3 °F 49.8 °F 85% 30.07 in 10.0 mi Calm Calm - N/A   Clear